Погода в Кинешме

Россия / Ивановская область     57°26′33″N   42°10′08″E
темп.,
°C
ветер,
м/с
пор.,
м/с
влажн.,
%
обл.,
%
осадки,
мм/ч
давл.,
гПа
погр.,
м
6 марта, сб
сб600:00−16зсз23940 0.0 101120
03:00−14з369723 0.1 1013141
06:00−14з2696100 0.1 1013163
09:00−14зсз239697 0.2 1014157
12:00−9зсз248590 0.0 1014604
15:00−8з358595 0.1 1013828
18:00−13з2392100 0.1 101324
21:00−15зюз239450 0.1 101220
7 марта, вс
вс700:00−16ююз33970 0.0 101041
03:00−16ююз38973 0.0 1008141
06:00−13ю5119474 0.0 1004299
09:00−9ю6139487 0.3 1000648
12:00−7ю61192100 0.9 996845
15:00−6ю61194100 1.8 992877
18:00−5ююв41095100 1.2 989633
21:00−5зюз3896100 2.3 989403
8 марта, пн
пн800:00−8з61294100 1.2 989753
03:00−9з61389100 1.9 990627
06:00−12з4992100 0.2 990313
09:00−11з3594100 0.3 991255
12:00−8зсз2491100 0.1 993424
15:00−7с5790100 0.6 995716
18:00−10ссз4993100 0.2 998529
21:00−12ссз4109299 0.4 1001505
9 марта, вт
вт900:00−14ссз4109390 0.0 1003413
03:00−17сз499594 0.1 1006260
06:00−17сз489498 0.1 1009368
09:00−19сз479497 0.1 1011305
12:00−16сз469163 0.0 1012441
15:00−14сз478981 0.0 1014608
18:00−18сз3595100 0.0 101590
21:00−22ссз3498100 0.1 101775
10 марта, ср
ср1000:00−25ссз239838 0.0 101929
03:00−27ссз239819 0.0 102025
06:00−29с23980 0.0 102137
09:00−26ссв35960 0.0 1022228
12:00−20с248755 0.0 1023478
15:00−17с358777 0.0 1022599
18:00−21ссз2395100 0.0 102321
21:00−24ссз239655 0.0 102520